Wind_Speed
36 37 37 36 35 34 30 29 30 28 24 24 27 31 33 35 35 34 32 31 31 32 31 30 30 31 30 29 27 25 23 21 19 17 15 13 11 10 8 8 8 9
35 36 35 36 36 34 32 30 28 26 23 24 26 28 31 35 36 34 33 33 34 34 32 32 32 32 31 29 27 26 24 22 20 18 15 13 12 11 9 9 9 9
33 34 35 35 34 34 34 30 26 24 24 25 26 27 31 34 35 35 35 35 36 35 33 33 33 33 31 30 28 26 24 21 19 18 16 14 13 11 9 9 9 9
32 33 33 32 32 33 32 28 24 25 26 28 27 26 31 34 35 36 38 38 37 36 35 35 34 34 33 31 28 26 24 21 19 18 15 13 12 10 9 9 10 10
32 32 33 33 33 31 28 26 26 27 29 30 27 26 31 34 36 39 40 40 39 37 37 36 36 35 33 31 29 26 24 21 19 18 15 13 11 10 10 10 11 11
32 32 33 34 33 29 26 26 27 29 32 31 26 25 31 34 37 41 42 41 40 39 38 38 37 36 34 31 29 26 24 22 19 17 15 13 11 10 10 11 11 12
32 31 32 33 31 27 26 27 28 30 31 29 25 26 31 34 38 42 42 41 41 40 39 38 38 37 34 32 29 27 25 22 19 16 14 12 11 10 11 11 12 12
30 30 32 33 31 28 27 29 31 31 28 26 26 28 31 34 40 43 42 42 41 40 40 39 38 37 35 32 30 27 25 22 19 17 14 12 11 10 10 11 12 12
30 30 32 34 33 31 30 32 33 32 28 26 27 30 31 35 41 43 43 42 42 41 41 40 39 37 35 33 30 27 24 22 19 17 14 12 10 10 10 11 11 12
31 31 33 35 33 31 32 34 34 32 28 25 27 29 31 36 42 44 44 43 43 42 41 40 39 38 35 33 30 27 24 22 19 16 14 12 10 10 10 10 11 12
32 32 34 36 32 29 30 32 32 32 29 26 27 30 32 36 43 45 45 45 44 43 42 41 39 37 35 32 29 27 24 22 19 16 14 12 10 10 10 10 10 11
34 34 35 36 33 30 30 30 30 31 31 29 30 31 33 38 44 47 46 45 43 42 41 40 38 36 34 32 29 27 24 22 19 17 15 13 11 11 10 10 10 12
35 35 35 34 32 31 32 33 32 32 32 31 32 33 34 39 45 48 47 45 43 42 41 39 38 36 34 31 29 26 24 21 19 17 15 13 12 11 11 11 13 14
35 35 34 34 32 32 34 35 35 35 33 32 33 34 34 39 45 48 47 45 43 42 41 39 38 36 34 31 28 26 24 22 20 17 15 14 13 13 13 14 15 16
34 34 34 34 33 34 35 34 34 35 34 34 35 34 34 37 44 48 48 46 44 42 41 40 39 37 33 30 28 26 24 22 20 18 17 16 16 16 15 16 16 18
33 34 34 34 34 35 35 34 32 33 34 35 34 33 33 37 43 48 49 46 44 43 42 41 39 36 33 30 28 26 24 22 21 20 19 18 18 18 17 17 18 21
32 33 34 35 34 34 34 34 32 31 31 32 31 31 33 36 42 47 49 47 45 43 42 41 39 36 33 30 28 27 25 24 24 24 22 20 20 21 19 19 21 24
32 32 33 34 33 33 34 34 32 29 29 30 29 29 31 35 40 46 48 47 46 44 42 41 39 36 33 31 30 28 27 27 27 27 23 21 23 23 22 23 25 26
33 32 32 31 31 31 32 33 32 30 30 29 28 27 30 34 39 45 48 48 46 45 43 41 39 37 34 32 31 30 29 30 30 27 24 23 25 25 26 29 28 28
34 33 31 29 29 29 29 31 31 30 30 30 28 28 30 34 38 44 47 48 46 45 43 41 39 37 35 33 31 31 31 31 30 27 24 25 27 29 32 33 31 30
34 33 31 29 29 29 29 29 29 29 29 31 31 29 30 32 37 42 45 46 45 44 43 42 40 37 35 33 32 32 32 32 30 27 26 28 30 33 35 36 34 34
32 32 31 30 29 30 30 28 27 28 29 31 31 30 30 31 35 40 43 45 45 44 44 42 40 37 34 33 32 33 33 32 31 28 28 31 33 35 36 37 37 37
30 30 30 29 28 28 28 27 27 28 28 29 30 30 29 30 33 37 40 42 43 44 43 42 39 36 34 33 33 33 32 32 31 30 31 34 35 36 37 39 39 39
26 26 26 27 26 25 25 26 27 27 26 26 27 27 27 28 29 31 34 37 39 40 40 39 38 35 33 32 32 32 32 33 32 32 33 36 36 37 38 40 41 42
20 21 22 23 23 23 24 25 25 24 22 22 22 23 23 23 24 25 28 32 34 35 35 35 34 32 31 31 32 32 34 35 33 33 35 36 37 38 40 41 43 44
15 16 17 17 18 20 20 21 20 19 18 17 17 18 18 18 18 19 22 25 28 31 33 34 34 33 32 33 35 36 37 35 33 33 35 37 38 40 42 44 45 47
Wind_Direction
221 223 225 228 231 232 235 242 241 234 240 251 242 227 215 206 205 206 205 203 200 196 194 194 194 192 192 192 189 187 185 184 183 181 180 180 179 184 194 207 217 223
223 222 224 228 227 228 233 234 233 234 244 252 243 228 216 209 207 208 206 203 199 196 196 196 195 193 193 192 190 188 187 186 186 184 183 184 185 189 197 209 219 224
224 223 225 228 228 231 232 228 230 237 240 240 235 225 216 212 211 210 206 202 198 197 198 198 196 195 194 193 191 189 190 189 188 187 187 189 190 195 202 212 222 227
224 223 222 224 228 231 230 228 235 241 234 228 225 221 217 215 214 211 204 200 199 199 200 198 197 196 194 194 193 192 192 191 191 191 192 195 195 199 209 220 227 231
226 223 222 225 229 227 226 232 239 240 231 221 218 220 220 218 215 210 202 199 200 201 200 199 198 197 196 195 195 195 194 193 194 194 196 200 201 206 216 225 234 238
226 224 225 229 228 224 229 234 235 235 229 219 218 223 222 220 217 208 202 201 202 202 202 200 199 198 198 198 197 197 197 197 197 197 198 202 206 214 223 229 237 242
224 223 226 225 222 226 234 234 232 233 227 219 222 229 226 222 216 207 203 204 204 203 203 202 201 200 200 200 200 199 199 199 200 199 201 205 209 218 229 235 240 245
222 221 223 221 223 233 237 233 230 226 221 220 227 232 230 223 215 209 206 207 207 206 204 203 204 203 203 203 202 201 201 201 202 202 205 209 213 221 233 240 245 250
222 221 223 224 228 234 234 233 230 219 216 224 227 231 232 224 216 211 209 210 210 208 206 205 205 205 206 206 204 204 205 205 206 206 208 212 216 225 236 245 252 257
224 224 226 225 226 230 233 236 229 216 217 225 226 231 233 224 217 214 212 213 212 210 209 208 207 207 208 207 207 207 208 210 210 210 211 215 218 226 238 248 257 263
225 225 227 225 224 230 237 236 225 218 224 231 232 236 233 225 220 217 215 215 214 213 211 210 209 210 210 210 209 210 212 213 212 212 215 220 224 230 240 250 260 268
225 226 227 227 225 228 234 233 227 229 234 235 237 238 232 226 223 219 217 217 216 215 214 212 212 212 213 213 213 214 216 215 215 216 218 223 230 236 243 252 262 269
227 227 229 229 228 230 234 231 228 232 237 237 238 240 234 228 225 222 219 218 217 217 216 215 215 215 215 216 216 218 219 220 222 223 224 229 237 241 245 256 267 271
228 228 228 230 231 234 238 236 231 231 234 236 238 239 235 230 226 223 220 219 219 218 218 218 218 218 218 217 218 221 222 224 227 228 231 238 243 243 248 261 273 277
229 228 228 230 232 234 237 239 237 234 233 235 237 238 236 231 227 224 222 220 220 220 220 220 220 220 219 220 222 224 226 229 229 231 239 247 246 243 249 264 279 285
230 229 229 232 233 233 234 237 239 238 236 236 239 239 236 231 226 224 222 221 222 222 221 221 221 221 221 222 225 227 230 231 230 236 248 251 245 241 248 265 283 293
232 229 229 233 233 231 231 235 240 241 238 238 240 240 237 232 226 223 223 223 223 224 224 224 224 223 223 224 226 229 231 230 234 246 254 250 242 241 249 267 285 296
235 230 230 232 232 230 230 234 239 239 237 240 242 240 237 232 226 224 224 224 224 225 226 227 226 225 225 226 229 231 231 233 242 254 256 246 239 241 251 266 282 295
237 234 232 231 231 232 231 233 238 236 234 240 243 239 237 232 227 225 224 225 226 227 227 228 228 227 227 229 231 233 234 238 249 258 255 244 240 244 255 265 277 293
236 235 234 233 233 234 232 234 239 238 235 238 242 240 237 234 230 227 225 226 227 228 230 230 229 228 228 229 232 234 236 242 253 258 251 243 244 250 258 264 272 288
235 234 234 233 233 235 235 236 241 243 240 240 241 240 239 237 234 230 229 229 229 230 231 232 231 230 228 229 234 235 236 245 256 256 247 245 250 254 259 263 269 282
235 233 233 233 233 235 236 236 241 246 245 244 243 242 240 238 236 233 231 231 231 232 233 233 233 230 229 233 238 235 237 249 259 257 249 250 254 256 259 264 269 278
235 234 233 234 234 236 237 238 242 246 248 248 247 245 244 242 240 237 234 234 233 233 233 233 233 231 232 238 238 235 242 257 263 259 254 254 258 260 262 266 271 277
236 236 236 235 234 236 238 241 245 248 250 250 249 249 248 247 246 242 239 238 237 236 235 234 233 233 236 239 237 238 251 262 262 258 257 259 262 265 266 269 273 277
234 236 236 236 235 236 238 244 249 251 251 251 249 250 250 250 249 246 242 241 240 239 238 237 236 238 241 240 237 243 256 262 260 259 260 263 266 269 270 272 274 277
225 228 231 232 233 235 238 244 248 250 250 250 250 251 252 251 252 251 248 246 244 241 240 240 241 244 244 239 239 249 260 262 259 260 263 266 270 272 273 274 276 278
Height
1520 1523 1525 1528 1530 1532 1534 1536 1538 1539 1540 1541 1543 1545 1547 1549 1551 1552 1554 1556 1558 1560 1562 1565 1566 1568 1570 1571 1573 1574 1575 1577 1577 1578 1578 1579 1579 1580 1581 1581 1582 1582
1517 1520 1522 1524 1526 1528 1530 1532 1534 1536 1537 1539 1540 1543 1545 1547 1549 1550 1552 1554 1556 1559 1561 1563 1565 1566 1568 1570 1571 1572 1574 1575 1575 1576 1576 1577 1578 1578 1579 1580 1580 1580
1515 1517 1519 1521 1523 1525 1527 1529 1531 1532 1534 1536 1537 1540 1542 1544 1546 1548 1550 1552 1555 1557 1559 1561 1563 1565 1566 1568 1569 1571 1572 1573 1573 1574 1575 1575 1576 1577 1577 1578 1579 1579
1512 1514 1517 1519 1521 1523 1525 1526 1528 1529 1531 1533 1535 1537 1539 1541 1543 1545 1548 1550 1553 1555 1557 1559 1561 1562 1564 1566 1567 1569 1570 1571 1571 1572 1573 1574 1574 1575 1576 1577 1578 1578
1510 1512 1515 1517 1519 1521 1522 1524 1525 1527 1529 1531 1533 1535 1537 1538 1541 1543 1545 1548 1550 1553 1555 1557 1559 1561 1562 1564 1565 1567 1568 1568 1569 1570 1571 1572 1573 1574 1575 1576 1577 1577
1507 1509 1512 1514 1516 1518 1520 1522 1524 1526 1527 1529 1531 1533 1535 1537 1539 1541 1543 1546 1548 1550 1553 1555 1557 1559 1560 1562 1563 1564 1565 1566 1567 1568 1570 1571 1572 1573 1574 1575 1576 1576
1503 1506 1508 1511 1513 1515 1517 1520 1522 1523 1525 1527 1530 1532 1533 1535 1537 1539 1542 1544 1546 1548 1551 1553 1555 1556 1558 1560 1561 1562 1563 1564 1566 1567 1568 1569 1570 1572 1573 1574 1575 1575
1499 1502 1505 1507 1509 1512 1514 1516 1519 1521 1523 1525 1528 1530 1532 1534 1536 1538 1540 1542 1545 1546 1548 1550 1552 1554 1556 1557 1559 1560 1561 1563 1564 1565 1566 1567 1568 1570 1571 1572 1573 1574
1497 1499 1502 1504 1506 1508 1511 1513 1515 1518 1520 1523 1526 1528 1529 1532 1534 1536 1538 1540 1542 1544 1546 1548 1550 1552 1554 1555 1557 1558 1560 1561 1562 1563 1564 1565 1566 1568 1569 1571 1571 1572
1494 1496 1499 1501 1504 1506 1508 1511 1512 1515 1518 1520 1523 1525 1527 1529 1531 1534 1536 1537 1539 1541 1543 1546 1548 1550 1552 1553 1555 1557 1559 1560 1561 1562 1562 1563 1564 1566 1567 1569 1570 1570
1491 1493 1496 1498 1501 1504 1507 1509 1510 1513 1515 1517 1519 1522 1524 1526 1529 1531 1532 1534 1537 1539 1541 1544 1546 1548 1550 1552 1554 1556 1557 1558 1559 1560 1561 1562 1563 1564 1566 1567 1568 1568
1487 1490 1492 1495 1498 1501 1504 1506 1508 1511 1512 1514 1516 1519 1521 1523 1525 1528 1530 1532 1535 1538 1540 1542 1545 1547 1549 1551 1553 1554 1555 1556 1557 1558 1559 1560 1561 1563 1564 1565 1566 1566
1484 1487 1489 1492 1495 1498 1501 1503 1506 1508 1510 1512 1514 1515 1517 1520 1522 1525 1528 1530 1533 1536 1538 1541 1543 1546 1547 1549 1551 1552 1553 1555 1556 1557 1558 1559 1560 1561 1562 1563 1563 1563
1482 1485 1487 1490 1493 1496 1498 1500 1502 1504 1506 1508 1510 1512 1514 1516 1519 1522 1525 1528 1531 1533 1536 1539 1541 1543 1545 1547 1548 1550 1552 1553 1554 1555 1556 1557 1558 1559 1560 1561 1561 1561
1479 1482 1485 1487 1490 1492 1493 1495 1498 1500 1502 1504 1506 1508 1510 1513 1516 1519 1522 1525 1528 1531 1533 1536 1538 1540 1543 1545 1546 1548 1550 1551 1553 1554 1554 1555 1556 1557 1558 1558 1558 1558
1476 1478 1481 1484 1486 1488 1489 1491 1494 1496 1498 1501 1503 1505 1507 1509 1512 1515 1518 1522 1525 1527 1530 1532 1535 1538 1541 1543 1545 1546 1548 1549 1551 1551 1552 1553 1554 1555 1555 1556 1556 1556
1472 1475 1477 1480 1482 1484 1486 1488 1491 1493 1495 1498 1500 1502 1503 1505 1508 1512 1515 1519 1521 1524 1527 1530 1533 1536 1538 1541 1542 1544 1546 1547 1548 1549 1549 1550 1551 1552 1553 1552 1553 1553
1468 1471 1474 1476 1478 1481 1483 1485 1488 1490 1492 1495 1497 1498 1500 1502 1505 1508 1511 1515 1518 1520 1523 1526 1530 1533 1535 1537 1539 1541 1543 1544 1545 1545 1546 1547 1548 1549 1549 1549 1549 1550
1464 1467 1470 1473 1475 1478 1481 1483 1484 1487 1489 1492 1494 1496 1497 1499 1502 1505 1508 1511 1514 1517 1520 1523 1527 1530 1532 1534 1536 1538 1540 1540 1541 1542 1543 1544 1545 1546 1546 1546 1546 1546
1461 1464 1467 1471 1473 1476 1478 1479 1481 1484 1486 1489 1491 1493 1494 1497 1499 1502 1505 1508 1511 1515 1518 1521 1524 1527 1529 1531 1533 1534 1536 1537 1538 1538 1539 1541 1542 1542 1542 1542 1543 1543
1459 1462 1465 1468 1471 1473 1475 1477 1479 1481 1483 1486 1488 1490 1492 1495 1497 1500 1503 1507 1510 1513 1515 1518 1521 1524 1526 1528 1529 1531 1533 1533 1534 1535 1536 1537 1538 1538 1538 1538 1539 1539
1456 1459 1462 1465 1468 1470 1472 1474 1477 1478 1481 1483 1485 1487 1490 1492 1495 1498 1501 1504 1507 1510 1513 1515 1518 1521 1523 1525 1526 1528 1529 1530 1530 1531 1532 1532 1533 1534 1534 1534 1535 1535
1453 1456 1459 1462 1465 1467 1469 1472 1474 1476 1478 1480 1482 1485 1487 1489 1492 1495 1498 1501 1504 1506 1509 1512 1515 1518 1520 1521 1523 1524 1526 1526 1526 1527 1527 1528 1529 1530 1530 1530 1530 1530
1452 1454 1457 1460 1463 1465 1468 1470 1472 1473 1476 1478 1480 1482 1485 1487 1489 1492 1495 1498 1500 1503 1505 1508 1511 1514 1516 1518 1520 1522 1523 1523 1522 1522 1522 1523 1525 1525 1526 1526 1525 1525
1450 1453 1456 1458 1461 1463 1466 1468 1470 1472 1474 1476 1478 1480 1482 1484 1486 1488 1491 1493 1497 1500 1503 1505 1508 1511 1513 1516 1517 1519 1519 1519 1518 1518 1518 1519 1521 1521 1521 1521 1520 1520
1448 1451 1454 1457 1459 1461 1464 1466 1468 1470 1472 1474 1476 1478 1480 1482 1484 1486 1488 1490 1493 1497 1499 1502 1505 1507 1510 1512 1513 1515 1515 1515 1515 1514 1514 1516 1516 1516 1515 1515 1514 1514